Home   Weather   Katowice   Past weeks

Flag for Poland Past Weather in Katowice, Poland — Yesterday and Last 2 Weeks

30 °F

Ice fog.

Feels Like: 25 °F
Forecast: 43 / 48 °F
Wind: 5 mph from East

Location: Katowice Airport

Current Time: Oct 28, 2016 at 6:36:46 AM

Latest Report: Oct 28, 2016 at 6:00 AM

Visibility: 1 mi

Pressure: 30.48 "Hg

Humidity: 93%

Dew Point: 28 °F

Location of KatowiceLocation

Past Weather in Katowice — Graph


Katowice Temperature Yesterday

Maximum temperature yesterday: 46 °F (at 12:00 PM)
Minimum temperature yesterday: 28 °F (at 11:30 PM)
Average temperature yesterday: 39 °F

High & Low Weather Summary for the Past Weeks

High61 °F (Oct 24, 3:00 PM)100% (Oct 14, 3:00 AM)30.51 "Hg (Oct 14, 3:00 AM)
Low27 °F (Oct 28, 3:30 AM)44% (Oct 23, 3:00 PM)29.92 "Hg (Oct 21, 1:30 PM)
Average45 °F87%30.15 "Hg
* Reported Oct 13 5:00 AM — Oct 28 5:30 AM, Katowice, Weather by CustomWeather, © 2016

Note: Actual official high and low records may vary slightly from our data, if they occured in-between our weather recording intervals... More about our weather records


Katowice Weather History for the Previous 24 Hours

Scroll right to see more
Time TempWeatherWind HumidityBarometerVisibility
5:30 AM
Fri, Oct 28
30 °FIce fog.5 mph93%30.48 "Hg1 mi
5:00 AM28 °FIce fog.3 mph93%30.48 "Hg1 mi
4:30 AM28 °FIce fog.5 mph100%30.48 "Hg1 mi
4:00 AM28 °FIce fog.2 mph93%30.48 "Hg1 mi
3:30 AM27 °FIce fog.1 mph93%30.48 "Hg2 mi
3:00 AM28 °FIce fog.2 mph100%30.48 "Hg1 mi
2:30 AM32 °FIce fog.6 mph100%30.51 "Hg2 mi
2:00 AM28 °FIce fog.2 mph100%30.51 "Hg1 mi
1:30 AM28 °FIce fog.2 mph100%30.51 "Hg2 mi
1:00 AM30 °FIce fog.2 mph93%30.51 "Hg2 mi
12:30 AM32 °FIce fog.6 mph93%30.51 "Hg2 mi
12:00 AM34 °FFog.7 mph93%30.51 "Hg1 mi
11:30 PM
Thu, Oct 27
28 °FIce fog.2 mph100%30.51 "Hg1 mi
11:00 PM30 °FIce fog.3 mph93%30.51 "Hg1 mi
10:30 PM30 °FChilly.2 mph93%30.51 "Hg1 mi
10:00 PM30 °FIce fog.2 mph93%30.51 "Hg2 mi
9:30 PM32 °FIce fog.3 mph93%30.51 "Hg2 mi
9:00 PM32 °FChilly.3 mph93%30.51 "Hg2 mi
8:30 PM32 °FIce fog.2 mph93%30.51 "Hg3 mi
8:00 PM34 °FChilly.2 mph93%30.48 "Hg2 mi
7:30 PM36 °FFog.2 mph87%30.48 "Hg3 mi
7:00 PM37 °FPassing clouds.3 mph87%30.48 "Hg4 mi
6:30 PM37 °FPassing clouds.2 mph87%30.48 "Hg4 mi
6:00 PM39 °FPassing clouds.1 mph87%30.48 "HgN/A
5:30 PM43 °FPassing clouds.1 mph76%30.48 "HgN/A
5:00 PM43 °FScattered clouds.2 mph81%30.45 "HgN/A
4:30 PM46 °FScattered clouds.No wind57%30.45 "HgN/A
4:00 PM46 °FScattered clouds.2 mph62%30.45 "HgN/A
3:30 PM46 °FPassing clouds.2 mph57%30.45 "HgN/A
3:00 PM46 °FPassing clouds.2 mph57%30.45 "HgN/A
2:30 PM46 °FScattered clouds.2 mph57%30.45 "HgN/A
2:00 PM46 °FPartly sunny.2 mph62%30.45 "HgN/A
1:30 PM46 °FPartly sunny.3 mph62%30.45 "HgN/A
1:00 PM46 °FPartly sunny.2 mph62%30.45 "HgN/A
12:30 PM46 °FBroken clouds.3 mph62%30.45 "HgN/A
12:00 PM46 °FPartly sunny.5 mph66%30.45 "HgN/A
11:30 AM45 °FPartly sunny.5 mph66%30.45 "HgN/A
11:00 AM43 °FPartly sunny.6 mph76%30.45 "HgN/A
10:30 AM43 °FPartly sunny.5 mph81%30.45 "HgN/A
10:00 AM41 °FPartly sunny.3 mph81%30.45 "HgN/A
9:30 AM41 °FPartly sunny.5 mph81%30.42 "HgN/A
9:00 AM39 °FPassing clouds.6 mph87%30.42 "HgN/A
8:30 AM39 °FPartly sunny.6 mph87%30.42 "HgN/A
8:00 AM37 °FPartly sunny.5 mph93%30.42 "HgN/A
7:30 AM37 °FOvercast.2 mph87%30.42 "HgN/A
7:00 AM37 °FOvercast.2 mph87%30.39 "HgN/A
6:30 AM37 °FPassing clouds.5 mph87%30.39 "HgN/A
6:00 AM37 °FOvercast.5 mph93%30.39 "HgN/A
Weather by CustomWeather, © 2016

See weather overviewHow to use our weather pages